TimeEDT,TemperatureF,Dew PointF,Humidity,Sea Level PressureIn,VisibilityMPH,Wind Direction,Wind SpeedMPH,Gust SpeedMPH,PrecipitationIn,Events,Conditions,WindDirDegrees,DateUTC
12:52 AM,69.1,64.0,84,29.88,10.0,South,12.7,-,N/A,,Overcast,180,2013-11-01 04:52:00
1:52 AM,69.1,63.0,81,29.85,10.0,South,15.0,-,N/A,,Overcast,190,2013-11-01 05:52:00
2:52 AM,69.1,63.0,81,29.79,10.0,South,19.6,27.6,N/A,,Overcast,190,2013-11-01 06:52:00
3:52 AM,69.1,63.0,81,29.78,10.0,SW,15.0,23.0,N/A,,Overcast,220,2013-11-01 07:52:00
4:14 AM,69.8,62.6,78,29.81,10.0,SSW,11.5,-,N/A,,Mostly Cloudy,210,2013-11-01 08:14:00
4:52 AM,68.0,62.1,81,29.78,10.0,SSW,13.8,19.6,N/A,,Overcast,200,2013-11-01 08:52:00
5:52 AM,69.1,60.1,73,29.78,10.0,SSW,12.7,20.7,N/A,,Overcast,210,2013-11-01 09:52:00
6:52 AM,69.1,59.0,70,29.78,10.0,SSW,12.7,19.6,N/A,,Overcast,200,2013-11-01 10:52:00
7:52 AM,68.0,60.1,76,29.77,10.0,SSW,12.7,-,N/A,,Overcast,200,2013-11-01 11:52:00
8:42 AM,69.8,60.8,73,29.81,10.0,SSW,13.8,21.9,N/A,,Overcast,200,2013-11-01 12:42:00
8:52 AM,68.0,62.1,81,29.80,7.0,SSW,18.4,25.3,0.00,Rain,Light Rain,210,2013-11-01 12:52:00
9:52 AM,66.9,64.0,90,29.80,10.0,South,10.4,-,0.00,Rain,Light Rain,190,2013-11-01 13:52:00
10:52 AM,68.0,64.0,87,29.80,8.0,SSW,10.4,18.4,0.00,Rain,Light Rain,210,2013-11-01 14:52:00
11:13 AM,68.0,64.4,88,29.81,10.0,SW,10.4,-,0.00,Rain,Light Rain,220,2013-11-01 15:13:00
11:32 AM,68.0,64.4,88,29.82,8.0,SW,9.2,-,0.00,Rain,Light Rain,220,2013-11-01 15:32:00
11:52 AM,66.9,66.0,97,29.80,6.0,SSW,8.1,-,0.01,Rain,Light Rain,210,2013-11-01 15:52:00
11:56 AM,66.2,66.2,100,29.81,5.0,SW,10.4,-,0.00,Rain,Light Rain,220,2013-11-01 15:56:00
12:52 PM,66.0,64.0,93,29.78,8.0,WSW,6.9,-,0.04,Rain,Light Rain,240,2013-11-01 16:52:00
1:32 PM,64.4,62.6,94,29.81,0.8,SSW,11.5,20.7,0.02,Rain,Rain,210,2013-11-01 17:32:00
1:52 PM,64.0,62.1,93,29.76,0.8,SSW,6.9,-,0.14,Rain,Rain,210,2013-11-01 17:52:00
2:01 PM,62.6,60.8,94,29.77,10.0,SW,10.4,-,0.00,Rain,Light Rain,220,2013-11-01 18:01:00
2:37 PM,62.6,60.8,94,29.77,1.8,SSW,6.9,-,0.09,Rain,Heavy Rain,210,2013-11-01 18:37:00
2:43 PM,62.6,59.0,88,29.76,3.0,SSW,10.4,-,0.10,Rain,Rain,200,2013-11-01 18:43:00
2:52 PM,62.1,60.1,93,29.76,7.0,SW,12.7,-,0.11,Rain,Light Rain,220,2013-11-01 18:52:00
2:58 PM,60.8,59.0,94,29.76,2.0,SSW,12.7,19.6,0.03,Rain,Heavy Rain,210,2013-11-01 18:58:00
3:52 PM,61.0,60.1,97,29.70,2.0,SSW,4.6,-,0.21,Rain,Light Rain,210,2013-11-01 19:52:00
3:59 PM,62.6,60.8,94,29.72,10.0,SSW,6.9,-,0.00,Rain,Light Rain,200,2013-11-01 19:59:00
4:24 PM,62.6,60.8,94,29.72,10.0,SSW,5.8,-,0.00,,Mostly Cloudy,210,2013-11-01 20:24:00
4:47 PM,62.6,60.8,94,29.73,10.0,SSW,6.9,-,0.00,,Overcast,210,2013-11-01 20:47:00
4:52 PM,62.1,60.1,93,29.71,10.0,SW,9.2,-,0.00,,Overcast,220,2013-11-01 20:52:00
5:52 PM,61.0,59.0,93,29.72,10.0,SSW,9.2,-,N/A,,Mostly Cloudy,210,2013-11-01 21:52:00
6:23 PM,60.8,59.0,94,29.73,10.0,SSW,5.8,-,0.00,,Mostly Cloudy,210,2013-11-01 22:23:00
6:52 PM,60.1,59.0,96,29.70,10.0,SSW,5.8,-,0.00,,Mostly Cloudy,210,2013-11-01 22:52:00
7:06 PM,60.8,59.0,94,29.73,10.0,SSW,5.8,-,N/A,,Mostly Cloudy,210,2013-11-01 23:06:00
7:52 PM,60.1,59.0,96,29.73,10.0,SW,5.8,-,N/A,,Overcast,220,2013-11-01 23:52:00
8:16 PM,60.8,59.0,94,29.74,10.0,SW,6.9,-,N/A,,Overcast,220,2013-11-02 00:16:00
8:52 PM,60.1,59.0,96,29.74,10.0,SW,6.9,-,N/A,,Overcast,230,2013-11-02 00:52:00
9:13 PM,60.8,59.0,94,29.75,10.0,SW,5.8,-,N/A,,Overcast,220,2013-11-02 01:13:00
9:52 PM,60.1,59.0,96,29.73,10.0,WSW,4.6,-,N/A,,Overcast,250,2013-11-02 01:52:00
10:52 PM,60.1,59.0,96,29.75,10.0,SW,3.5,-,N/A,,Overcast,230,2013-11-02 02:52:00
11:11 PM,60.8,59.0,94,29.76,10.0,SSW,3.5,-,N/A,,Overcast,210,2013-11-02 03:11:00
11:52 PM,60.1,59.0,96,29.74,10.0,South,4.6,-,N/A,,Overcast,180,2013-11-02 03:52:00